Flag for Canada Weather past 2 weeks in Kitchener, Ontario, Canada

Now
64 °F

Mostly cloudy.


Feels Like: 64 °F
Forecast: 59 / 74 °F
Wind: 14 mph from West

Location: Waterloo Well

Current Time: Aug 3, 2015 at 10:08:00 AM

Latest Report: Aug 3, 2015 at 9:00 AM


Visibility: 9 mi

Pressure: 29.72 "Hg

Humidity: 88%

Dew point: 61 °F

Location of KitchenerLocation

Historic Weather in Kitchener — Graph

°F

Kitchener temperature yesterday

Maximum temperature yesterday: 84 °F (at 3:00 PM)
Minimum temperature yesterday: 52 °F (at 6:00 AM)
Average temperature yesterday: 69 °F

Past Weeks' High & Low Weather Summary

 TemperatureHumidityPressure
High90 °F (Jul 29, 3:00 PM)100% (Jul 20, 6:00 AM)30.06 "Hg (Jul 20, 6:00 AM)
Low46 °F (Jul 24, 5:00 AM)31% (Jul 29, 3:00 PM)29.61 "Hg (Aug 2, 9:00 PM)
Average70 °F70%29.88 "Hg
* Reported Jul 19 9:02 AM — Aug 3 9:00 AM, Kitchener, Weather by CustomWeather, © 2015

Note: Actual official high and low records may vary slightly from our data, if they occured in-between our weather recording intervals... More about our weather records

Advertising

Kitchener weather history for previous 24 hours

 ConditionsComfort  
Time TempWeatherWind HumidityBarometerVisibility
9:00 AM
Mon, Aug 3
64 °FMostly cloudy.14 mph88%29.72 "Hg9 mi
8:02 AM63 °FLight rain. Mostly cloudy.16 mph94%29.71 "Hg9 mi
7:00 AM63 °FOvercast.13 mph94%29.70 "Hg9 mi
6:00 AM63 °FOvercast.15 mph94%29.70 "Hg9 mi
5:53 AM63 °FOvercast.13 mph94%29.70 "Hg9 mi
5:00 AM63 °FMostly cloudy.15 mph94%29.69 "Hg9 mi
4:57 AM63 °FMostly cloudy.15 mph94%29.69 "Hg9 mi
4:00 AM63 °FLight rain. Overcast.15 mph94%29.69 "Hg9 mi
3:59 AM63 °FLight rain. Overcast.16 mph94%29.68 "Hg9 mi
3:00 AM61 °FLight rain. Overcast.15 mph100%29.65 "Hg9 mi
2:00 AM61 °FLight rain. Mostly cloudy.14 mph94%29.68 "Hg9 mi
1:00 AM63 °FLight rain. Overcast.15 mph94%29.67 "Hg9 mi
12:00 AM63 °FRain. Mostly cloudy.10 mph94%29.69 "Hg9 mi
11:00 PM
Sun, Aug 2
63 °FRain. Mostly cloudy.7 mph94%29.70 "Hg9 mi
10:02 PM64 °FThundershowers. Overcast.14 mph88%29.70 "Hg9 mi
9:00 PM77 °FOvercast.21 mph61%29.61 "Hg9 mi
8:00 PM73 °FOvercast.13 mph78%29.65 "Hg9 mi
7:00 PM72 °FScattered clouds.3 mph83%29.72 "Hg9 mi
6:00 PM64 °FStrong thunderstorms. Fog.14 mph88%29.75 "Hg2 mi
5:00 PM79 °FThundershowers. Scattered clouds.15 mph61%29.73 "Hg9 mi
4:00 PM81 °FSunny.17 mph51%29.76 "Hg9 mi
3:00 PM84 °FPartly sunny.21 mph45%29.76 "Hg9 mi
2:00 PM82 °FPassing clouds.22 mph37%29.78 "Hg9 mi
1:00 PM82 °FSunny.16 mph35%29.80 "Hg9 mi
12:00 PM81 °FSunny.15 mph37%29.83 "Hg9 mi
11:00 AM79 °FSunny.12 mph45%29.83 "Hg9 mi
10:00 AM77 °FSunny.14 mph42%29.85 "Hg9 mi
Weather by CustomWeather, © 2015

See weather overviewHow to use our weather pages